Flag for Finland Weather past 2 weeks in Kemi, Finland

Now
-2 °F

Light snow. Passing clouds.


Feels Like: -10 °F
Forecast: 15 / 24 °F
Wind: 3 mph from East

Location: Kemi Airport

Current Time: Dec 28, 2014 at 3:09:02 PM

Latest Report: Dec 28, 2014 at 2:20 PM


Visibility: 3 mi

Pressure: 30.15 "Hg

Humidity: 84%

Dew point: -6 °F

Location of KemiLocation

Historic Weather in Kemi — Graph

°F

Kemi temperature yesterday

Maximum temperature yesterday: 0 °F (at 12:20 AM)
Minimum temperature yesterday: -13 °F (at 9:20 PM)
Average temperature yesterday: -7 °F

Past Weeks' High & Low Weather Summary

 TemperatureHumidityPressure
High37 °F (Dec 15, 3:20 PM)100% (Dec 13, 1:20 PM)30.15 "Hg (Dec 13, 1:20 PM)
Low-13 °F (Dec 25, 2:50 AM)76% (Dec 25, 1:20 AM)28.80 "Hg (Dec 20, 2:50 AM)
Average16 °F92%29.39 "Hg
* Reported Dec 13 1:20 PM — Dec 28 1:50 PM, Kemi, Weather by CustomWeather, © 2014

Note: Actual official high and low records may vary slightly from our data, if they occured in-between our weather recording intervals... More about our weather records

Advertising

Kemi weather history for previous 24 hours

 ConditionsComfort  
Time TempWeatherWind HumidityBarometerVisibility
1:50 PM
Dec 28
-6 °FLight snow. Partly sunny.1 mph84%30.15 "Hg1 mi
1:20 PM-4 °FLight snow. Scattered clouds.No wind84%30.15 "Hg3 mi
12:50 PM-4 °FSnow. Scattered clouds.1 mph84%30.15 "Hg1 mi
12:20 PM-4 °FLight snow. Low clouds.1 mph84%30.15 "Hg1 mi
11:50 AM-6 °FSnow flurries. Low clouds.2 mph84%30.15 "Hg2 mi
11:20 AM-6 °FSnow flurries. Low clouds.1 mph84%30.15 "Hg2 mi
10:50 AM-8 °FSnow showers. Low clouds.1 mph84%30.15 "Hg1 mi
10:20 AM-6 °FSnow flurries. Low clouds.2 mph84%30.15 "HgN/A
9:50 AM-8 °FSnow flurries. Low clouds.2 mph92%30.12 "HgN/A
9:20 AM-8 °FLow clouds.2 mph84%30.12 "HgN/A
8:50 AM-8 °FLow clouds.No wind84%30.12 "HgN/A
8:20 AM-8 °FLow clouds.No wind84%30.12 "HgN/A
7:50 AM-8 °FSnow flurries. Low clouds.2 mph84%30.12 "HgN/A
7:20 AM-8 °FSnow flurries. Low clouds.1 mph77%30.12 "HgN/A
6:50 AM-8 °FSnow flurries. Low clouds.No wind84%30.09 "Hg6 mi
6:20 AM-8 °FSnow flurries. Low clouds.No wind92%30.09 "HgN/A
5:20 AM-6 °FLow clouds.No wind84%30.09 "HgN/A
4:50 AM-4 °FLight snow. Low clouds.No wind84%30.09 "HgN/A
4:20 AM-4 °FLight snow. Low clouds.1 mph84%30.09 "Hg2 mi
3:50 AM-4 °FLight snow. Low clouds.2 mph92%30.07 "Hg1 mi
3:20 AM-6 °FLight snow. Low clouds.2 mph84%30.07 "Hg3 mi
2:50 AM-11 °FSnow flurries. Low clouds.2 mph84%30.09 "Hg3 mi
2:20 AM-11 °FSnow flurries. Passing clouds.2 mph84%30.07 "HgN/A
1:50 AM-11 °FSnow flurries. Passing clouds.3 mph84%30.07 "HgN/A
1:20 AM-11 °FClear.5 mph84%30.07 "Hg10 mi
12:50 AM-11 °FClear.2 mph76%30.07 "Hg10 mi
12:20 AM-11 °FClear.1 mph84%30.04 "Hg10 mi
11:50 PM
Dec 27
-11 °FClear.2 mph76%30.07 "Hg10 mi
11:20 PM-11 °FClear.2 mph84%30.04 "Hg10 mi
10:50 PM-11 °FClear.3 mph76%30.04 "Hg10 mi
10:20 PM-11 °FClear.2 mph84%30.04 "Hg10 mi
9:50 PM-13 °FClear.1 mph83%30.04 "Hg10 mi
9:20 PM-13 °FClear.No wind83%30.04 "Hg10 mi
8:50 PM-11 °FClear.1 mph76%30.01 "Hg10 mi
8:20 PM-11 °FClear.2 mph84%30.01 "Hg10 mi
7:50 PM-9 °FClear.2 mph77%30.01 "Hg10 mi
7:20 PM-11 °FClear.2 mph84%29.98 "Hg10 mi
6:50 PM-11 °FClear.3 mph84%29.98 "Hg10 mi
6:20 PM-11 °FClear.5 mph84%29.98 "Hg10 mi
5:50 PM-9 °FClear.5 mph77%29.98 "Hg10 mi
5:20 PM-11 °FClear.5 mph84%29.98 "Hg10 mi
4:50 PM-11 °FClear.3 mph76%29.95 "Hg10 mi
4:20 PM-11 °FClear.5 mph76%29.95 "Hg10 mi
3:50 PM-9 °FClear.5 mph77%29.95 "Hg10 mi
3:20 PM-9 °FClear.5 mph77%29.95 "Hg10 mi
Weather by CustomWeather, © 2014

See weather overviewHow to use our weather pages